Regional Weather Roundup
Issued by NWS

Home | Current Version | Previous Version | Text Only | Print | Product List | Glossary Off
Versions: 1 2 3 4 5 6 7 8 9 10 11 12 13 14 15 16 17 18 19 20 21 22 23 24 25 26 27 28 29 30 31 32 33 34 35 36 37 38 39 40 41 42 43 44 45 46 47 48 49 50

000
ASUS45 KCYS 011510
RWRWY

WYOMING REGIONAL WEATHER ROUNDUP
NATIONAL WEATHER SERVICE CHEYENNE WY
900 AM MDT FRI AUG 01 2014

NOTE:  "FAIR" INDICATES FEW OR NO CLOUDS BELOW 12,000 FEET
WITH NO SIGNIFICANT WEATHER AND/OR OBSTRUCTIONS TO VISIBILITY.

WYZ001-011600-
YELLOWSTONE NATIONAL PARK

CITY           SKY/WX    TMP DP  RH WIND       PRES   REMARKS
LK YELLOWSTONE   N/A     54  46  74 E3        30.45S
W YELLOWSTONE  NOT AVBL

$$
WYZ002>013-054>058-071-098>099-011600-
NORTHERN WYOMING

CITY           SKY/WX    TMP DP  RH WIND       PRES   REMARKS
JACKSON        SUNNY     57  43  58 CALM      30.37R
CODY           MOSUNNY   73  46  38 S3        30.25S
GREYBULL       MOSUNNY   71  40  32 VRB6      30.18S
WORLAND        SUNNY     69  43  38 CALM      30.20S
SHERIDAN       MOSUNNY   74  46  36 CALM      30.16R
BUFFALO        MOSUNNY   78  41  26 N10       30.22S
GILLETTE       MOSUNNY   75  43  31 SW8       30.18R
HULETT         FAIR      77  45  31 MISG      30.18
NEWCASTLE      FAIR      75  41  29 MISG      30.20

$$
WYZ014>020-022>026-101>103-011600-
CENTRAL WYOMING

CITY           SKY/WX    TMP DP  RH WIND       PRES   REMARKS
BIG PINEY      SUNNY     60  48  64 VRB3      30.39R
PINEDALE       SUNNY     61  37  41 MISG      30.39S
DUBOIS         FAIR      52  41  66 CALM      30.39R
LANDER         MOSUNNY   70  40  33 CALM      30.27R
RIVERTON       MOSUNNY   70  40  33 NE7       30.28R
CASPER         SUNNY     73  43  33 SW10      30.26S
DOUGLAS        SUNNY     69  47  45 CALM      30.25S

$$
WYZ021-027>030-104>119-011600-
SOUTHERN WYOMING

CITY           SKY/WX    TMP DP  RH WIND       PRES   REMARKS
EVANSTON       PTSUNNY   63  41  44 E3        30.37R
KEMMERER       SUNNY     63  37  39 N9        30.38S
FORT BRIDGER   FAIR      61  47  60 N5        30.40R
ROCK SPRINGS   SUNNY     64  41  42 NE3       30.35R
DIXON          FAIR      64  39  39 SE6       30.33S
RAWLINS        SUNNY     63  41  44 NE7       30.35S
SARATOGA       FAIR      59  39  47 CALM      30.37S
LARAMIE        SUNNY     58  45  62 CALM      30.38R
CHEYENNE       SUNNY     68  49  50 SW6       30.32R
TORRINGTON     SUNNY     66  51  58 CALM      30.21R
PINE BLUFFS    FAIR      68  54  60 CALM      30.28S

$$



USA.gov is the U.S. government's official web portal to all federal, state and local government web resources and services.